Find Starlink 33707

NORAD ID: 63401 Int'l Des: 2025-065 Owner: SPXS Country: US Constellation: starlink operational
LEOCIRCULAR

当前视图

正在加载3D地球...

About Starlink 33707

Starlink 33707 (NORAD 63401) is a starlink constellation satellite (v2 mini) launched Mar 31, 2025 by SPXS of US. It operates in LEO, CIRCULAR orbit with a mass of 575.00 kg.

关于 Starlink 33707

正在加载描述...

即将过境

Passes for default location (London). Set your location on the main map for personalized predictions.

高度历史

Loading altitude history...

两行轨道根数

1 63401U 25065C 26196.79595440 .00010227 00000-0 38056-3 0 9996
2 63401 43.0015 103.4814 0001573 277.3911 82.6762 15.27587281 72439
Epoch: Jul 15, 2026 • Age: 8 hours

当前状态

高度 491.0 km
远地点 / 近地点 N/A
速度 7.62 km/s
星下点 -32.23°S, 84.59°E
发射日期 Mar 31, 2025
运行时间 1.2 years
类型 internet

技术详情

分类 Payload
质量 575.00 kg
干质量 530.00 kg
总质量 575.00 kg
长度 0.30 m
直径 4.10 m
跨度 29.00 m
形状 Box + pan
制造商 SPXS
平台类型 Starlink V2MO
阶段状态 In Orbit
所有者/国家 SPXS/US

Most Searched